Погода в Звезде

Россия / Орловская область     53°05′56″N   35°20′25″E
темп.,
°C
ветер,
м/с
пор.,
м/с
влажн.,
%
обл.,
%
осадки,
мм/ч
давл.,
гПа
погр.,
м
11 апреля, вс
вс1100:00+3ююз33640 0.0 102740
03:00+2юз33690 0.0 102827
06:00+2юз22720 0.0 102911
09:00+7ююз22550 0.0 1030206
12:00+11ююв21430 0.0 1030931
15:00+13всв22390 0.0 10291193
18:00+12всв34480 0.0 1029183
21:00+8всв35620 0.0 103066
12 апреля, пн
пн1200:00+6в3769100 0.0 103197
03:00+5всв3973100 0.0 1031151
06:00+4всв51271100 0.0 1030250
09:00+7всв61262100 0.0 1029448
12:00+10в5772100 0.0 1027655
15:00+12в467298 0.0 1026642
18:00+14в4772100 0.0 1025290
21:00+10всв4788100 0.0 1025115
13 апреля, вт
вт1300:00+9в4889100 0.0 1023134
03:00+10юв3582100 0.0 102379
06:00+9юв3683100 0.0 102371
09:00+12юв5974100 0.0 1023277
12:00+18ююв6952100 0.0 10221132
15:00+18ююв69475 0.0 10221528
18:00+17юв365549 0.0 1021152
21:00+13вюв45665 0.0 102161
14 апреля, ср
ср1400:00+10юв41072100 0.0 1020166
03:00+10юв477571 0.0 1020104
06:00+9юв41181100 0.0 1020214
09:00+13юв4771100 0.0 1020305
12:00+17юв465529 0.0 10181055
15:00+19юв683687 0.0 10172216
18:00+16юв4951100 0.0 1016257
21:00+12юв2263100 0.0 101720
15 апреля, чт
чт1500:00+12в2265100 0.0 101617
03:00+12вюв6136199 0.0 1016369
06:00+9ююв3576100 0.0 1015100
09:00+12юз337498 0.0 1016427
12:00+14юз2261100 0.0 1015950
15:00+16юв115456 0.0 10151365
18:00+16ююз015597 0.2 1014815
21:00+12вюв3476100 0.8 101571